Index of /20260502/WXO-DD/model_rdps/10km/06/036
Name Last modified Size Description
Parent Directory -
20260502T06Z_MSC_RDPS_AbsoluteVorticity_IsbL-0250_RLatLon0.09_PT036H.grib2 2026-05-02 08:49 620K
20260502T06Z_MSC_RDPS_AbsoluteVorticity_IsbL-0500_RLatLon0.09_PT036H.grib2 2026-05-02 08:49 704K
20260502T06Z_MSC_RDPS_AbsoluteVorticity_IsbL-0700_RLatLon0.09_PT036H.grib2 2026-05-02 08:49 622K
20260502T06Z_MSC_RDPS_AbsoluteVorticity_IsbL-0850_RLatLon0.09_PT036H.grib2 2026-05-02 08:49 792K
20260502T06Z_MSC_RDPS_AirTemp_AGL-120m_RLatLon0.09_PT036H.grib2 2026-05-02 08:49 397K
20260502T06Z_MSC_RDPS_AirTemp_AGL-2m_RLatLon0.09_PT036H.grib2 2026-05-02 08:49 635K
20260502T06Z_MSC_RDPS_AirTemp_AGL-40m_RLatLon0.09_PT036H.grib2 2026-05-02 08:49 406K
20260502T06Z_MSC_RDPS_AirTemp_AGL-80m_RLatLon0.09_PT036H.grib2 2026-05-02 08:49 401K
20260502T06Z_MSC_RDPS_AirTemp_IsbL-0001_RLatLon0.09_PT036H.grib2 2026-05-02 08:49 327K
20260502T06Z_MSC_RDPS_AirTemp_IsbL-0005_RLatLon0.09_PT036H.grib2 2026-05-02 08:49 289K
20260502T06Z_MSC_RDPS_AirTemp_IsbL-0010_RLatLon0.09_PT036H.grib2 2026-05-02 08:49 301K
20260502T06Z_MSC_RDPS_AirTemp_IsbL-0020_RLatLon0.09_PT036H.grib2 2026-05-02 08:49 414K
20260502T06Z_MSC_RDPS_AirTemp_IsbL-0030_RLatLon0.09_PT036H.grib2 2026-05-02 08:49 342K
20260502T06Z_MSC_RDPS_AirTemp_IsbL-0050_RLatLon0.09_PT036H.grib2 2026-05-02 08:49 316K
20260502T06Z_MSC_RDPS_AirTemp_IsbL-0100_RLatLon0.09_PT036H.grib2 2026-05-02 08:49 392K
20260502T06Z_MSC_RDPS_AirTemp_IsbL-0150_RLatLon0.09_PT036H.grib2 2026-05-02 08:49 419K
20260502T06Z_MSC_RDPS_AirTemp_IsbL-0175_RLatLon0.09_PT036H.grib2 2026-05-02 08:49 408K
20260502T06Z_MSC_RDPS_AirTemp_IsbL-0200_RLatLon0.09_PT036H.grib2 2026-05-02 08:49 414K
20260502T06Z_MSC_RDPS_AirTemp_IsbL-0225_RLatLon0.09_PT036H.grib2 2026-05-02 08:49 420K
20260502T06Z_MSC_RDPS_AirTemp_IsbL-0250_RLatLon0.09_PT036H.grib2 2026-05-02 08:49 426K
20260502T06Z_MSC_RDPS_AirTemp_IsbL-0275_RLatLon0.09_PT036H.grib2 2026-05-02 08:49 405K
20260502T06Z_MSC_RDPS_AirTemp_IsbL-0300_RLatLon0.09_PT036H.grib2 2026-05-02 08:49 410K
20260502T06Z_MSC_RDPS_AirTemp_IsbL-0350_RLatLon0.09_PT036H.grib2 2026-05-02 08:49 423K
20260502T06Z_MSC_RDPS_AirTemp_IsbL-0400_RLatLon0.09_PT036H.grib2 2026-05-02 08:49 425K
20260502T06Z_MSC_RDPS_AirTemp_IsbL-0450_RLatLon0.09_PT036H.grib2 2026-05-02 08:49 432K
20260502T06Z_MSC_RDPS_AirTemp_IsbL-0500_RLatLon0.09_PT036H.grib2 2026-05-02 08:49 408K
20260502T06Z_MSC_RDPS_AirTemp_IsbL-0550_RLatLon0.09_PT036H.grib2 2026-05-02 08:49 426K
20260502T06Z_MSC_RDPS_AirTemp_IsbL-0600_RLatLon0.09_PT036H.grib2 2026-05-02 08:49 444K
20260502T06Z_MSC_RDPS_AirTemp_IsbL-0650_RLatLon0.09_PT036H.grib2 2026-05-02 08:49 460K
20260502T06Z_MSC_RDPS_AirTemp_IsbL-0700_RLatLon0.09_PT036H.grib2 2026-05-02 08:49 487K
20260502T06Z_MSC_RDPS_AirTemp_IsbL-0750_RLatLon0.09_PT036H.grib2 2026-05-02 08:49 414K
20260502T06Z_MSC_RDPS_AirTemp_IsbL-0800_RLatLon0.09_PT036H.grib2 2026-05-02 08:49 461K
20260502T06Z_MSC_RDPS_AirTemp_IsbL-0850_RLatLon0.09_PT036H.grib2 2026-05-02 08:49 511K
20260502T06Z_MSC_RDPS_AirTemp_IsbL-0875_RLatLon0.09_PT036H.grib2 2026-05-02 08:49 530K
20260502T06Z_MSC_RDPS_AirTemp_IsbL-0900_RLatLon0.09_PT036H.grib2 2026-05-02 08:49 540K
20260502T06Z_MSC_RDPS_AirTemp_IsbL-0925_RLatLon0.09_PT036H.grib2 2026-05-02 08:49 534K
20260502T06Z_MSC_RDPS_AirTemp_IsbL-0950_RLatLon0.09_PT036H.grib2 2026-05-02 08:49 535K
20260502T06Z_MSC_RDPS_AirTemp_IsbL-0970_RLatLon0.09_PT036H.grib2 2026-05-02 08:49 529K
20260502T06Z_MSC_RDPS_AirTemp_IsbL-0985_RLatLon0.09_PT036H.grib2 2026-05-02 08:49 521K
20260502T06Z_MSC_RDPS_AirTemp_IsbL-1000_RLatLon0.09_PT036H.grib2 2026-05-02 08:49 506K
20260502T06Z_MSC_RDPS_AirTemp_IsbL-1015_RLatLon0.09_PT036H.grib2 2026-05-02 08:49 506K
20260502T06Z_MSC_RDPS_Albedo_Sfc_RLatLon0.09_PT036H.grib2 2026-05-02 08:49 156K
20260502T06Z_MSC_RDPS_CAPE_Sfc_RLatLon0.09_PT036H.grib2 2026-05-02 08:49 1.8M
20260502T06Z_MSC_RDPS_CIN_Sfc_RLatLon0.09_PT036H.grib2 2026-05-02 08:49 1.2M
20260502T06Z_MSC_RDPS_CloudWater_EAtm_RLatLon0.09_PT036H.grib2 2026-05-02 08:49 222K
20260502T06Z_MSC_RDPS_ConvectivePrecip-Accum_Sfc_RLatLon0.09_PT036H.grib2 2026-05-02 08:49 960K
20260502T06Z_MSC_RDPS_DewPointDepression_AGL-2m_RLatLon0.09_PT036H.grib2 2026-05-02 08:49 429K
20260502T06Z_MSC_RDPS_DewPointDepression_IsbL-0001_RLatLon0.09_PT036H.grib2 2026-05-02 08:49 193
20260502T06Z_MSC_RDPS_DewPointDepression_IsbL-0005_RLatLon0.09_PT036H.grib2 2026-05-02 08:49 193
20260502T06Z_MSC_RDPS_DewPointDepression_IsbL-0010_RLatLon0.09_PT036H.grib2 2026-05-02 08:49 193
20260502T06Z_MSC_RDPS_DewPointDepression_IsbL-0020_RLatLon0.09_PT036H.grib2 2026-05-02 08:49 193
20260502T06Z_MSC_RDPS_DewPointDepression_IsbL-0030_RLatLon0.09_PT036H.grib2 2026-05-02 08:49 193
20260502T06Z_MSC_RDPS_DewPointDepression_IsbL-0050_RLatLon0.09_PT036H.grib2 2026-05-02 08:49 75K
20260502T06Z_MSC_RDPS_DewPointDepression_IsbL-0100_RLatLon0.09_PT036H.grib2 2026-05-02 08:49 119K
20260502T06Z_MSC_RDPS_DewPointDepression_IsbL-0150_RLatLon0.09_PT036H.grib2 2026-05-02 08:49 151K
20260502T06Z_MSC_RDPS_DewPointDepression_IsbL-0175_RLatLon0.09_PT036H.grib2 2026-05-02 08:49 187K
20260502T06Z_MSC_RDPS_DewPointDepression_IsbL-0200_RLatLon0.09_PT036H.grib2 2026-05-02 08:49 224K
20260502T06Z_MSC_RDPS_DewPointDepression_IsbL-0225_RLatLon0.09_PT036H.grib2 2026-05-02 08:49 265K
20260502T06Z_MSC_RDPS_DewPointDepression_IsbL-0250_RLatLon0.09_PT036H.grib2 2026-05-02 08:49 299K
20260502T06Z_MSC_RDPS_DewPointDepression_IsbL-0275_RLatLon0.09_PT036H.grib2 2026-05-02 08:49 308K
20260502T06Z_MSC_RDPS_DewPointDepression_IsbL-0300_RLatLon0.09_PT036H.grib2 2026-05-02 08:49 326K
20260502T06Z_MSC_RDPS_DewPointDepression_IsbL-0350_RLatLon0.09_PT036H.grib2 2026-05-02 08:49 334K
20260502T06Z_MSC_RDPS_DewPointDepression_IsbL-0400_RLatLon0.09_PT036H.grib2 2026-05-02 08:49 341K
20260502T06Z_MSC_RDPS_DewPointDepression_IsbL-0450_RLatLon0.09_PT036H.grib2 2026-05-02 08:49 343K
20260502T06Z_MSC_RDPS_DewPointDepression_IsbL-0500_RLatLon0.09_PT036H.grib2 2026-05-02 08:49 348K
20260502T06Z_MSC_RDPS_DewPointDepression_IsbL-0550_RLatLon0.09_PT036H.grib2 2026-05-02 08:49 359K
20260502T06Z_MSC_RDPS_DewPointDepression_IsbL-0600_RLatLon0.09_PT036H.grib2 2026-05-02 08:49 367K
20260502T06Z_MSC_RDPS_DewPointDepression_IsbL-0650_RLatLon0.09_PT036H.grib2 2026-05-02 08:49 376K
20260502T06Z_MSC_RDPS_DewPointDepression_IsbL-0700_RLatLon0.09_PT036H.grib2 2026-05-02 08:49 390K
20260502T06Z_MSC_RDPS_DewPointDepression_IsbL-0750_RLatLon0.09_PT036H.grib2 2026-05-02 08:49 412K
20260502T06Z_MSC_RDPS_DewPointDepression_IsbL-0800_RLatLon0.09_PT036H.grib2 2026-05-02 08:49 453K
20260502T06Z_MSC_RDPS_DewPointDepression_IsbL-0850_RLatLon0.09_PT036H.grib2 2026-05-02 08:49 483K
20260502T06Z_MSC_RDPS_DewPointDepression_IsbL-0875_RLatLon0.09_PT036H.grib2 2026-05-02 08:49 482K
20260502T06Z_MSC_RDPS_DewPointDepression_IsbL-0900_RLatLon0.09_PT036H.grib2 2026-05-02 08:49 473K
20260502T06Z_MSC_RDPS_DewPointDepression_IsbL-0925_RLatLon0.09_PT036H.grib2 2026-05-02 08:49 459K
20260502T06Z_MSC_RDPS_DewPointDepression_IsbL-0950_RLatLon0.09_PT036H.grib2 2026-05-02 08:49 455K
20260502T06Z_MSC_RDPS_DewPointDepression_IsbL-0970_RLatLon0.09_PT036H.grib2 2026-05-02 08:49 448K
20260502T06Z_MSC_RDPS_DewPointDepression_IsbL-0985_RLatLon0.09_PT036H.grib2 2026-05-02 08:49 445K
20260502T06Z_MSC_RDPS_DewPointDepression_IsbL-1000_RLatLon0.09_PT036H.grib2 2026-05-02 08:49 440K
20260502T06Z_MSC_RDPS_DewPointDepression_IsbL-1015_RLatLon0.09_PT036H.grib2 2026-05-02 08:49 433K
20260502T06Z_MSC_RDPS_DewPoint_AGL-2m_RLatLon0.09_PT036H.grib2 2026-05-02 08:49 406K
20260502T06Z_MSC_RDPS_DownwardLongwaveRadiationFlux-Accum_Sfc_RLatLon0.09_PT036H.grib2 2026-05-02 08:49 376K
20260502T06Z_MSC_RDPS_DownwardShortwaveRadiationFlux-Accum_NTAtm_RLatLon0.09_PT036H.grib2 2026-05-02 08:49 140K
20260502T06Z_MSC_RDPS_DownwardShortwaveRadiationFlux-Accum_Sfc_RLatLon0.09_PT036H.grib2 2026-05-02 08:49 561K
20260502T06Z_MSC_RDPS_FreezingRain-Accum12h_Sfc_RLatLon0.09_PT036H.grib2 2026-05-02 08:49 71K
20260502T06Z_MSC_RDPS_FreezingRain-Accum1h_Sfc_RLatLon0.09_PT036H.grib2 2026-05-02 08:49 13K
20260502T06Z_MSC_RDPS_FreezingRain-Accum24h_Sfc_RLatLon0.09_PT036H.grib2 2026-05-02 08:49 88K
20260502T06Z_MSC_RDPS_FreezingRain-Accum3h_Sfc_RLatLon0.09_PT036H.grib2 2026-05-02 08:49 20K
20260502T06Z_MSC_RDPS_FreezingRain-Accum6h_Sfc_RLatLon0.09_PT036H.grib2 2026-05-02 08:49 44K
20260502T06Z_MSC_RDPS_FreezingRain-Accum_Sfc_RLatLon0.09_PT036H.grib2 2026-05-02 08:49 135K
20260502T06Z_MSC_RDPS_GeopotentialHeight_IsbL-0001_RLatLon0.09_PT036H.grib2 2026-05-02 08:49 323K
20260502T06Z_MSC_RDPS_GeopotentialHeight_IsbL-0005_RLatLon0.09_PT036H.grib2 2026-05-02 08:49 306K
20260502T06Z_MSC_RDPS_GeopotentialHeight_IsbL-0010_RLatLon0.09_PT036H.grib2 2026-05-02 08:49 307K
20260502T06Z_MSC_RDPS_GeopotentialHeight_IsbL-0020_RLatLon0.09_PT036H.grib2 2026-05-02 08:49 307K
20260502T06Z_MSC_RDPS_GeopotentialHeight_IsbL-0030_RLatLon0.09_PT036H.grib2 2026-05-02 08:49 309K
20260502T06Z_MSC_RDPS_GeopotentialHeight_IsbL-0050_RLatLon0.09_PT036H.grib2 2026-05-02 08:49 312K
20260502T06Z_MSC_RDPS_GeopotentialHeight_IsbL-0100_RLatLon0.09_PT036H.grib2 2026-05-02 08:49 287K
20260502T06Z_MSC_RDPS_GeopotentialHeight_IsbL-0150_RLatLon0.09_PT036H.grib2 2026-05-02 08:49 231K
20260502T06Z_MSC_RDPS_GeopotentialHeight_IsbL-0175_RLatLon0.09_PT036H.grib2 2026-05-02 08:49 233K
20260502T06Z_MSC_RDPS_GeopotentialHeight_IsbL-0200_RLatLon0.09_PT036H.grib2 2026-05-02 08:49 265K
20260502T06Z_MSC_RDPS_GeopotentialHeight_IsbL-0225_RLatLon0.09_PT036H.grib2 2026-05-02 08:49 266K
20260502T06Z_MSC_RDPS_GeopotentialHeight_IsbL-0250_RLatLon0.09_PT036H.grib2 2026-05-02 08:49 267K
20260502T06Z_MSC_RDPS_GeopotentialHeight_IsbL-0275_RLatLon0.09_PT036H.grib2 2026-05-02 08:49 236K
20260502T06Z_MSC_RDPS_GeopotentialHeight_IsbL-0300_RLatLon0.09_PT036H.grib2 2026-05-02 08:49 235K
20260502T06Z_MSC_RDPS_GeopotentialHeight_IsbL-0350_RLatLon0.09_PT036H.grib2 2026-05-02 08:49 231K
20260502T06Z_MSC_RDPS_GeopotentialHeight_IsbL-0400_RLatLon0.09_PT036H.grib2 2026-05-02 08:49 227K
20260502T06Z_MSC_RDPS_GeopotentialHeight_IsbL-0450_RLatLon0.09_PT036H.grib2 2026-05-02 08:49 297K
20260502T06Z_MSC_RDPS_GeopotentialHeight_IsbL-0500_RLatLon0.09_PT036H.grib2 2026-05-02 08:49 292K
20260502T06Z_MSC_RDPS_GeopotentialHeight_IsbL-0550_RLatLon0.09_PT036H.grib2 2026-05-02 08:49 289K
20260502T06Z_MSC_RDPS_GeopotentialHeight_IsbL-0600_RLatLon0.09_PT036H.grib2 2026-05-02 08:49 285K
20260502T06Z_MSC_RDPS_GeopotentialHeight_IsbL-0650_RLatLon0.09_PT036H.grib2 2026-05-02 08:49 285K
20260502T06Z_MSC_RDPS_GeopotentialHeight_IsbL-0700_RLatLon0.09_PT036H.grib2 2026-05-02 08:49 257K
20260502T06Z_MSC_RDPS_GeopotentialHeight_IsbL-0750_RLatLon0.09_PT036H.grib2 2026-05-02 08:49 261K
20260502T06Z_MSC_RDPS_GeopotentialHeight_IsbL-0800_RLatLon0.09_PT036H.grib2 2026-05-02 08:49 353K
20260502T06Z_MSC_RDPS_GeopotentialHeight_IsbL-0850_RLatLon0.09_PT036H.grib2 2026-05-02 08:49 361K
20260502T06Z_MSC_RDPS_GeopotentialHeight_IsbL-0875_RLatLon0.09_PT036H.grib2 2026-05-02 08:49 362K
20260502T06Z_MSC_RDPS_GeopotentialHeight_IsbL-0900_RLatLon0.09_PT036H.grib2 2026-05-02 08:49 368K
20260502T06Z_MSC_RDPS_GeopotentialHeight_IsbL-0925_RLatLon0.09_PT036H.grib2 2026-05-02 08:49 372K
20260502T06Z_MSC_RDPS_GeopotentialHeight_IsbL-0950_RLatLon0.09_PT036H.grib2 2026-05-02 08:49 375K
20260502T06Z_MSC_RDPS_GeopotentialHeight_IsbL-0970_RLatLon0.09_PT036H.grib2 2026-05-02 08:49 381K
20260502T06Z_MSC_RDPS_GeopotentialHeight_IsbL-0985_RLatLon0.09_PT036H.grib2 2026-05-02 08:49 390K
20260502T06Z_MSC_RDPS_GeopotentialHeight_IsbL-1000_RLatLon0.09_PT036H.grib2 2026-05-02 08:49 403K
20260502T06Z_MSC_RDPS_GeopotentialHeight_IsbL-1015_RLatLon0.09_PT036H.grib2 2026-05-02 08:49 417K
20260502T06Z_MSC_RDPS_Humidex_Sfc_RLatLon0.09_PT036H.grib2 2026-05-02 08:49 2.4M
20260502T06Z_MSC_RDPS_IcePellets-Accum12h_Sfc_RLatLon0.09_PT036H.grib2 2026-05-02 08:49 5.5K
20260502T06Z_MSC_RDPS_IcePellets-Accum1h_Sfc_RLatLon0.09_PT036H.grib2 2026-05-02 08:49 969
20260502T06Z_MSC_RDPS_IcePellets-Accum24h_Sfc_RLatLon0.09_PT036H.grib2 2026-05-02 08:49 11K
20260502T06Z_MSC_RDPS_IcePellets-Accum3h_Sfc_RLatLon0.09_PT036H.grib2 2026-05-02 08:49 1.5K
20260502T06Z_MSC_RDPS_IcePellets-Accum6h_Sfc_RLatLon0.09_PT036H.grib2 2026-05-02 08:49 3.7K
20260502T06Z_MSC_RDPS_IcePellets-Accum_Sfc_RLatLon0.09_PT036H.grib2 2026-05-02 08:49 17K
20260502T06Z_MSC_RDPS_KIndex_Sfc_RLatLon0.09_PT036H.grib2 2026-05-02 08:49 2.4M
20260502T06Z_MSC_RDPS_LatentHeatNetFlux_Sfc_RLatLon0.09_PT036H.grib2 2026-05-02 08:49 316K
20260502T06Z_MSC_RDPS_LiftedIndex-MU-VT_IsbL-0500_RLatLon0.09_PT036H.grib2 2026-05-02 08:49 2.4M
20260502T06Z_MSC_RDPS_NetLongwaveRadiationFlux-Accum_Sfc_RLatLon0.09_PT036H.grib2 2026-05-02 08:49 511K
20260502T06Z_MSC_RDPS_NetShortwaveRadiationFlux-Accum_Sfc_RLatLon0.09_PT036H.grib2 2026-05-02 08:49 560K
20260502T06Z_MSC_RDPS_PlanetaryBoundaryLayerHeight_Sfc_RLatLon0.09_PT036H.grib2 2026-05-02 08:49 1.0M
20260502T06Z_MSC_RDPS_Precip-Accum12h_Sfc_RLatLon0.09_PT036H.grib2 2026-05-02 08:49 1.8M
20260502T06Z_MSC_RDPS_Precip-Accum1h_Sfc_RLatLon0.09_PT036H.grib2 2026-05-02 08:49 1.2M
20260502T06Z_MSC_RDPS_Precip-Accum24h_Sfc_RLatLon0.09_PT036H.grib2 2026-05-02 08:49 1.8M
20260502T06Z_MSC_RDPS_Precip-Accum3h_Sfc_RLatLon0.09_PT036H.grib2 2026-05-02 08:49 1.3M
20260502T06Z_MSC_RDPS_Precip-Accum6h_Sfc_RLatLon0.09_PT036H.grib2 2026-05-02 08:49 1.5M
20260502T06Z_MSC_RDPS_Precip-Accum_Sfc_RLatLon0.09_PT036H.grib2 2026-05-02 08:49 2.0M
20260502T06Z_MSC_RDPS_PrecipRate_Sfc_RLatLon0.09_PT036H.grib2 2026-05-02 08:49 174K
20260502T06Z_MSC_RDPS_PrecipType-Instant_Sfc_RLatLon0.09_PT036H.grib2 2026-05-02 08:49 574K
20260502T06Z_MSC_RDPS_Pressure-Trend3h_Sfc_RLatLon0.09_PT036H.grib2 2026-05-02 08:49 1.2M
20260502T06Z_MSC_RDPS_Pressure_MSL_RLatLon0.09_PT036H.grib2 2026-05-02 08:49 332K
20260502T06Z_MSC_RDPS_Pressure_PVU-1.5_RLatLon0.09_PT036H.grib2 2026-05-02 08:49 2.3M
20260502T06Z_MSC_RDPS_Pressure_PVU-1_RLatLon0.09_PT036H.grib2 2026-05-02 08:49 2.4M
20260502T06Z_MSC_RDPS_Pressure_PVU-2_RLatLon0.09_PT036H.grib2 2026-05-02 08:49 2.4M
20260502T06Z_MSC_RDPS_Pressure_Sfc_RLatLon0.09_PT036H.grib2 2026-05-02 08:49 500K
20260502T06Z_MSC_RDPS_RadiativeTemp_Sfc_RLatLon0.09_PT036H.grib2 2026-05-02 08:49 329K
20260502T06Z_MSC_RDPS_Rain-Accum12h_Sfc_RLatLon0.09_PT036H.grib2 2026-05-02 08:49 1.2M
20260502T06Z_MSC_RDPS_Rain-Accum1h_Sfc_RLatLon0.09_PT036H.grib2 2026-05-02 08:49 598K
20260502T06Z_MSC_RDPS_Rain-Accum24h_Sfc_RLatLon0.09_PT036H.grib2 2026-05-02 08:49 1.4M
20260502T06Z_MSC_RDPS_Rain-Accum3h_Sfc_RLatLon0.09_PT036H.grib2 2026-05-02 08:49 687K
20260502T06Z_MSC_RDPS_Rain-Accum6h_Sfc_RLatLon0.09_PT036H.grib2 2026-05-02 08:49 1.0M
20260502T06Z_MSC_RDPS_Rain-Accum_Sfc_RLatLon0.09_PT036H.grib2 2026-05-02 08:49 1.6M
20260502T06Z_MSC_RDPS_RelativeHumidity_AGL-2m_RLatLon0.09_PT036H.grib2 2026-05-02 08:49 1.0M
20260502T06Z_MSC_RDPS_RelativeHumidity_IsbL-0010_RLatLon0.09_PT036H.grib2 2026-05-02 08:49 631K
20260502T06Z_MSC_RDPS_RelativeHumidity_IsbL-0020_RLatLon0.09_PT036H.grib2 2026-05-02 08:49 668K
20260502T06Z_MSC_RDPS_RelativeHumidity_IsbL-0030_RLatLon0.09_PT036H.grib2 2026-05-02 08:49 607K
20260502T06Z_MSC_RDPS_RelativeHumidity_IsbL-0050_RLatLon0.09_PT036H.grib2 2026-05-02 08:49 308K
20260502T06Z_MSC_RDPS_RelativeHumidity_IsbL-0100_RLatLon0.09_PT036H.grib2 2026-05-02 08:49 279K
20260502T06Z_MSC_RDPS_RelativeHumidity_IsbL-0150_RLatLon0.09_PT036H.grib2 2026-05-02 08:49 422K
20260502T06Z_MSC_RDPS_RelativeHumidity_IsbL-0175_RLatLon0.09_PT036H.grib2 2026-05-02 08:49 484K
20260502T06Z_MSC_RDPS_RelativeHumidity_IsbL-0200_RLatLon0.09_PT036H.grib2 2026-05-02 08:49 558K
20260502T06Z_MSC_RDPS_RelativeHumidity_IsbL-0225_RLatLon0.09_PT036H.grib2 2026-05-02 08:49 625K
20260502T06Z_MSC_RDPS_RelativeHumidity_IsbL-0250_RLatLon0.09_PT036H.grib2 2026-05-02 08:49 685K
20260502T06Z_MSC_RDPS_RelativeHumidity_IsbL-0275_RLatLon0.09_PT036H.grib2 2026-05-02 08:49 708K
20260502T06Z_MSC_RDPS_RelativeHumidity_IsbL-0300_RLatLon0.09_PT036H.grib2 2026-05-02 08:49 748K
20260502T06Z_MSC_RDPS_RelativeHumidity_IsbL-0350_RLatLon0.09_PT036H.grib2 2026-05-02 08:49 776K
20260502T06Z_MSC_RDPS_RelativeHumidity_IsbL-0400_RLatLon0.09_PT036H.grib2 2026-05-02 08:49 788K
20260502T06Z_MSC_RDPS_RelativeHumidity_IsbL-0450_RLatLon0.09_PT036H.grib2 2026-05-02 08:49 790K
20260502T06Z_MSC_RDPS_RelativeHumidity_IsbL-0500_RLatLon0.09_PT036H.grib2 2026-05-02 08:49 795K
20260502T06Z_MSC_RDPS_RelativeHumidity_IsbL-0550_RLatLon0.09_PT036H.grib2 2026-05-02 08:49 812K
20260502T06Z_MSC_RDPS_RelativeHumidity_IsbL-0600_RLatLon0.09_PT036H.grib2 2026-05-02 08:49 829K
20260502T06Z_MSC_RDPS_RelativeHumidity_IsbL-0650_RLatLon0.09_PT036H.grib2 2026-05-02 08:49 845K
20260502T06Z_MSC_RDPS_RelativeHumidity_IsbL-0700_RLatLon0.09_PT036H.grib2 2026-05-02 08:49 881K
20260502T06Z_MSC_RDPS_RelativeHumidity_IsbL-0750_RLatLon0.09_PT036H.grib2 2026-05-02 08:49 926K
20260502T06Z_MSC_RDPS_RelativeHumidity_IsbL-0800_RLatLon0.09_PT036H.grib2 2026-05-02 08:49 1.0M
20260502T06Z_MSC_RDPS_RelativeHumidity_IsbL-0850_RLatLon0.09_PT036H.grib2 2026-05-02 08:49 1.0M
20260502T06Z_MSC_RDPS_RelativeHumidity_IsbL-0875_RLatLon0.09_PT036H.grib2 2026-05-02 08:49 1.1M
20260502T06Z_MSC_RDPS_RelativeHumidity_IsbL-0900_RLatLon0.09_PT036H.grib2 2026-05-02 08:49 1.1M
20260502T06Z_MSC_RDPS_RelativeHumidity_IsbL-0925_RLatLon0.09_PT036H.grib2 2026-05-02 08:49 1.1M
20260502T06Z_MSC_RDPS_RelativeHumidity_IsbL-0950_RLatLon0.09_PT036H.grib2 2026-05-02 08:49 1.1M
20260502T06Z_MSC_RDPS_RelativeHumidity_IsbL-0970_RLatLon0.09_PT036H.grib2 2026-05-02 08:49 1.1M
20260502T06Z_MSC_RDPS_RelativeHumidity_IsbL-0985_RLatLon0.09_PT036H.grib2 2026-05-02 08:49 1.0M
20260502T06Z_MSC_RDPS_RelativeHumidity_IsbL-1000_RLatLon0.09_PT036H.grib2 2026-05-02 08:49 1.0M
20260502T06Z_MSC_RDPS_RelativeHumidity_IsbL-1015_RLatLon0.09_PT036H.grib2 2026-05-02 08:49 1.0M
20260502T06Z_MSC_RDPS_Runoff-Accum_Sfc_RLatLon0.09_PT036H.grib2 2026-05-02 08:49 63K
20260502T06Z_MSC_RDPS_SWEATIndex_Sfc_RLatLon0.09_PT036H.grib2 2026-05-02 08:49 2.4M
20260502T06Z_MSC_RDPS_SeeingIndex_EAtm_RLatLon0.09_PT036H.grib2 2026-05-02 08:49 1.0M
20260502T06Z_MSC_RDPS_SensibleHeatNetFlux_Sfc_RLatLon0.09_PT036H.grib2 2026-05-02 08:49 370K
20260502T06Z_MSC_RDPS_ShowalterIndex_IsbL-0500_RLatLon0.09_PT036H.grib2 2026-05-02 08:49 2.6M
20260502T06Z_MSC_RDPS_SkyTransparencyIndex_EAtm_RLatLon0.09_PT036H.grib2 2026-05-02 08:49 724K
20260502T06Z_MSC_RDPS_Snow-Accum12h_Sfc_RLatLon0.09_PT036H.grib2 2026-05-02 08:49 616K
20260502T06Z_MSC_RDPS_Snow-Accum1h_Sfc_RLatLon0.09_PT036H.grib2 2026-05-02 08:49 445K
20260502T06Z_MSC_RDPS_Snow-Accum24h_Sfc_RLatLon0.09_PT036H.grib2 2026-05-02 08:49 644K
20260502T06Z_MSC_RDPS_Snow-Accum3h_Sfc_RLatLon0.09_PT036H.grib2 2026-05-02 08:49 476K
20260502T06Z_MSC_RDPS_Snow-Accum6h_Sfc_RLatLon0.09_PT036H.grib2 2026-05-02 08:49 575K
20260502T06Z_MSC_RDPS_Snow-Accum_Sfc_RLatLon0.09_PT036H.grib2 2026-05-02 08:49 732K
20260502T06Z_MSC_RDPS_SnowDensity_Sfc_RLatLon0.09_PT036H.grib2 2026-05-02 08:49 172K
20260502T06Z_MSC_RDPS_SnowDepth_Sfc_RLatLon0.09_PT036H.grib2 2026-05-02 08:49 653K
20260502T06Z_MSC_RDPS_SoilTemp_DBS-0to10cm_RLatLon0.09_PT036H.grib2 2026-05-02 08:49 235K
20260502T06Z_MSC_RDPS_SoilTemp_Sfc_RLatLon0.09_PT036H.grib2 2026-05-02 08:49 299K
20260502T06Z_MSC_RDPS_SoilVolumetricIceContent_Sfc_RLatLon0.09_PT036H.grib2 2026-05-02 08:49 157K
20260502T06Z_MSC_RDPS_SoilVolumetricWaterContent_DBS-0to10cm_RLatLon0.09_PT036H.grib2 2026-05-02 08:49 273K
20260502T06Z_MSC_RDPS_SoilVolumetricWaterContent_DBS-0to1cm_RLatLon0.09_PT036H.grib2 2026-05-02 08:49 341K
20260502T06Z_MSC_RDPS_SpecificHumidity_AGL-120m_RLatLon0.09_PT036H.grib2 2026-05-02 08:49 504K
20260502T06Z_MSC_RDPS_SpecificHumidity_AGL-2m_RLatLon0.09_PT036H.grib2 2026-05-02 08:49 674K
20260502T06Z_MSC_RDPS_SpecificHumidity_AGL-40m_RLatLon0.09_PT036H.grib2 2026-05-02 08:49 509K
20260502T06Z_MSC_RDPS_SpecificHumidity_AGL-80m_RLatLon0.09_PT036H.grib2 2026-05-02 08:49 506K
20260502T06Z_MSC_RDPS_SpecificHumidity_IsbL-0001_RLatLon0.09_PT036H.grib2 2026-05-02 08:49 372K
20260502T06Z_MSC_RDPS_SpecificHumidity_IsbL-0005_RLatLon0.09_PT036H.grib2 2026-05-02 08:49 368K
20260502T06Z_MSC_RDPS_SpecificHumidity_IsbL-0010_RLatLon0.09_PT036H.grib2 2026-05-02 08:49 401K
20260502T06Z_MSC_RDPS_SpecificHumidity_IsbL-0020_RLatLon0.09_PT036H.grib2 2026-05-02 08:49 379K
20260502T06Z_MSC_RDPS_SpecificHumidity_IsbL-0030_RLatLon0.09_PT036H.grib2 2026-05-02 08:49 374K
20260502T06Z_MSC_RDPS_SpecificHumidity_IsbL-0050_RLatLon0.09_PT036H.grib2 2026-05-02 08:49 456K
20260502T06Z_MSC_RDPS_SpecificHumidity_IsbL-0100_RLatLon0.09_PT036H.grib2 2026-05-02 08:49 423K
20260502T06Z_MSC_RDPS_SpecificHumidity_IsbL-0150_RLatLon0.09_PT036H.grib2 2026-05-02 08:49 460K
20260502T06Z_MSC_RDPS_SpecificHumidity_IsbL-0175_RLatLon0.09_PT036H.grib2 2026-05-02 08:49 444K
20260502T06Z_MSC_RDPS_SpecificHumidity_IsbL-0200_RLatLon0.09_PT036H.grib2 2026-05-02 08:49 459K
20260502T06Z_MSC_RDPS_SpecificHumidity_IsbL-0225_RLatLon0.09_PT036H.grib2 2026-05-02 08:49 461K
20260502T06Z_MSC_RDPS_SpecificHumidity_IsbL-0250_RLatLon0.09_PT036H.grib2 2026-05-02 08:49 560K
20260502T06Z_MSC_RDPS_SpecificHumidity_IsbL-0275_RLatLon0.09_PT036H.grib2 2026-05-02 08:49 475K
20260502T06Z_MSC_RDPS_SpecificHumidity_IsbL-0300_RLatLon0.09_PT036H.grib2 2026-05-02 08:49 571K
20260502T06Z_MSC_RDPS_SpecificHumidity_IsbL-0350_RLatLon0.09_PT036H.grib2 2026-05-02 08:49 544K
20260502T06Z_MSC_RDPS_SpecificHumidity_IsbL-0400_RLatLon0.09_PT036H.grib2 2026-05-02 08:49 523K
20260502T06Z_MSC_RDPS_SpecificHumidity_IsbL-0450_RLatLon0.09_PT036H.grib2 2026-05-02 08:49 570K
20260502T06Z_MSC_RDPS_SpecificHumidity_IsbL-0500_RLatLon0.09_PT036H.grib2 2026-05-02 08:49 505K
20260502T06Z_MSC_RDPS_SpecificHumidity_IsbL-0550_RLatLon0.09_PT036H.grib2 2026-05-02 08:49 560K
20260502T06Z_MSC_RDPS_SpecificHumidity_IsbL-0600_RLatLon0.09_PT036H.grib2 2026-05-02 08:49 625K
20260502T06Z_MSC_RDPS_SpecificHumidity_IsbL-0650_RLatLon0.09_PT036H.grib2 2026-05-02 08:49 545K
20260502T06Z_MSC_RDPS_SpecificHumidity_IsbL-0700_RLatLon0.09_PT036H.grib2 2026-05-02 08:49 592K
20260502T06Z_MSC_RDPS_SpecificHumidity_IsbL-0750_RLatLon0.09_PT036H.grib2 2026-05-02 08:49 650K
20260502T06Z_MSC_RDPS_SpecificHumidity_IsbL-0800_RLatLon0.09_PT036H.grib2 2026-05-02 08:49 741K
20260502T06Z_MSC_RDPS_SpecificHumidity_IsbL-0850_RLatLon0.09_PT036H.grib2 2026-05-02 08:49 819K
20260502T06Z_MSC_RDPS_SpecificHumidity_IsbL-0875_RLatLon0.09_PT036H.grib2 2026-05-02 08:49 844K
20260502T06Z_MSC_RDPS_SpecificHumidity_IsbL-0900_RLatLon0.09_PT036H.grib2 2026-05-02 08:49 717K
20260502T06Z_MSC_RDPS_SpecificHumidity_IsbL-0925_RLatLon0.09_PT036H.grib2 2026-05-02 08:49 716K
20260502T06Z_MSC_RDPS_SpecificHumidity_IsbL-0950_RLatLon0.09_PT036H.grib2 2026-05-02 08:49 719K
20260502T06Z_MSC_RDPS_SpecificHumidity_IsbL-0970_RLatLon0.09_PT036H.grib2 2026-05-02 08:49 712K
20260502T06Z_MSC_RDPS_SpecificHumidity_IsbL-0985_RLatLon0.09_PT036H.grib2 2026-05-02 08:49 706K
20260502T06Z_MSC_RDPS_SpecificHumidity_IsbL-1000_RLatLon0.09_PT036H.grib2 2026-05-02 08:49 699K
20260502T06Z_MSC_RDPS_SpecificHumidity_IsbL-1015_RLatLon0.09_PT036H.grib2 2026-05-02 08:49 689K
20260502T06Z_MSC_RDPS_SpecificHumidity_Sfc_RLatLon0.09_PT036H.grib2 2026-05-02 08:49 346K
20260502T06Z_MSC_RDPS_StormRelativeHelicity_EtaL-10000_RLatLon0.09_PT036H.grib2 2026-05-02 08:49 1.0M
20260502T06Z_MSC_RDPS_StormSeverityIndex_EtaL-10000_RLatLon0.09_PT036H.grib2 2026-05-02 08:49 1.2M
20260502T06Z_MSC_RDPS_Thickness_IsbL-0850to0700_RLatLon0.09_PT036H.grib2 2026-05-02 08:49 178K
20260502T06Z_MSC_RDPS_Thickness_IsbL-1000to0500_RLatLon0.09_PT036H.grib2 2026-05-02 08:49 199K
20260502T06Z_MSC_RDPS_Thickness_IsbL-1000to0850_RLatLon0.09_PT036H.grib2 2026-05-02 08:49 267K
20260502T06Z_MSC_RDPS_TotalCloudCover_Sfc_RLatLon0.09_PT036H.grib2 2026-05-02 08:49 656K
20260502T06Z_MSC_RDPS_TotalTotalsIndex_Sfc_RLatLon0.09_PT036H.grib2 2026-05-02 08:49 2.4M
20260502T06Z_MSC_RDPS_UVIndex-ClearSky-Max24h_Sfc_RLatLon0.09_PT036H.grib2 2026-05-02 08:49 289K
20260502T06Z_MSC_RDPS_UVIndex-ClearSky_Sfc_RLatLon0.09_PT036H.grib2 2026-05-02 08:49 229K
20260502T06Z_MSC_RDPS_UVIndex-Max24h_Sfc_RLatLon0.09_PT036H.grib2 2026-05-02 08:49 654K
20260502T06Z_MSC_RDPS_UVIndex_Sfc_RLatLon0.09_PT036H.grib2 2026-05-02 08:49 531K
20260502T06Z_MSC_RDPS_UpwardLongwaveRadiationFlux_NTAtm_RLatLon0.09_PT036H.grib2 2026-05-02 08:49 497K
20260502T06Z_MSC_RDPS_UpwardShortwaveRadiationFlux_NTAtm_RLatLon0.09_PT036H.grib2 2026-05-02 08:49 562K
20260502T06Z_MSC_RDPS_VerticalVelocity_IsbL-0250_RLatLon0.09_PT036H.grib2 2026-05-02 08:49 555K
20260502T06Z_MSC_RDPS_VerticalVelocity_IsbL-0500_RLatLon0.09_PT036H.grib2 2026-05-02 08:49 675K
20260502T06Z_MSC_RDPS_VerticalVelocity_IsbL-0700_RLatLon0.09_PT036H.grib2 2026-05-02 08:49 599K
20260502T06Z_MSC_RDPS_VerticalVelocity_IsbL-0850_RLatLon0.09_PT036H.grib2 2026-05-02 08:49 709K
20260502T06Z_MSC_RDPS_VerticalWindShear_EtaL-6500_RLatLon0.09_PT036H.grib2 2026-05-02 08:49 1.2M
20260502T06Z_MSC_RDPS_WindChill_Sfc_RLatLon0.09_PT036H.grib2 2026-05-02 08:49 1.1M
20260502T06Z_MSC_RDPS_WindDir_AGL-10m_RLatLon0.09_PT036H.grib2 2026-05-02 08:49 970K
20260502T06Z_MSC_RDPS_WindDir_AGL-120m_RLatLon0.09_PT036H.grib2 2026-05-02 08:49 617K
20260502T06Z_MSC_RDPS_WindDir_AGL-40m_RLatLon0.09_PT036H.grib2 2026-05-02 08:49 637K
20260502T06Z_MSC_RDPS_WindDir_AGL-80m_RLatLon0.09_PT036H.grib2 2026-05-02 08:49 625K
20260502T06Z_MSC_RDPS_WindDir_IsbL-0001_RLatLon0.09_PT036H.grib2 2026-05-02 08:49 296K
20260502T06Z_MSC_RDPS_WindDir_IsbL-0005_RLatLon0.09_PT036H.grib2 2026-05-02 08:49 374K
20260502T06Z_MSC_RDPS_WindDir_IsbL-0010_RLatLon0.09_PT036H.grib2 2026-05-02 08:49 384K
20260502T06Z_MSC_RDPS_WindDir_IsbL-0020_RLatLon0.09_PT036H.grib2 2026-05-02 08:49 435K
20260502T06Z_MSC_RDPS_WindDir_IsbL-0030_RLatLon0.09_PT036H.grib2 2026-05-02 08:49 425K
20260502T06Z_MSC_RDPS_WindDir_IsbL-0050_RLatLon0.09_PT036H.grib2 2026-05-02 08:49 429K
20260502T06Z_MSC_RDPS_WindDir_IsbL-0100_RLatLon0.09_PT036H.grib2 2026-05-02 08:49 412K
20260502T06Z_MSC_RDPS_WindDir_IsbL-0150_RLatLon0.09_PT036H.grib2 2026-05-02 08:49 415K
20260502T06Z_MSC_RDPS_WindDir_IsbL-0175_RLatLon0.09_PT036H.grib2 2026-05-02 08:49 432K
20260502T06Z_MSC_RDPS_WindDir_IsbL-0200_RLatLon0.09_PT036H.grib2 2026-05-02 08:49 453K
20260502T06Z_MSC_RDPS_WindDir_IsbL-0225_RLatLon0.09_PT036H.grib2 2026-05-02 08:49 458K
20260502T06Z_MSC_RDPS_WindDir_IsbL-0250_RLatLon0.09_PT036H.grib2 2026-05-02 08:49 462K
20260502T06Z_MSC_RDPS_WindDir_IsbL-0275_RLatLon0.09_PT036H.grib2 2026-05-02 08:49 484K
20260502T06Z_MSC_RDPS_WindDir_IsbL-0300_RLatLon0.09_PT036H.grib2 2026-05-02 08:49 481K
20260502T06Z_MSC_RDPS_WindDir_IsbL-0350_RLatLon0.09_PT036H.grib2 2026-05-02 08:49 500K
20260502T06Z_MSC_RDPS_WindDir_IsbL-0400_RLatLon0.09_PT036H.grib2 2026-05-02 08:49 518K
20260502T06Z_MSC_RDPS_WindDir_IsbL-0450_RLatLon0.09_PT036H.grib2 2026-05-02 08:49 524K
20260502T06Z_MSC_RDPS_WindDir_IsbL-0500_RLatLon0.09_PT036H.grib2 2026-05-02 08:49 534K
20260502T06Z_MSC_RDPS_WindDir_IsbL-0550_RLatLon0.09_PT036H.grib2 2026-05-02 08:49 543K
20260502T06Z_MSC_RDPS_WindDir_IsbL-0600_RLatLon0.09_PT036H.grib2 2026-05-02 08:49 564K
20260502T06Z_MSC_RDPS_WindDir_IsbL-0650_RLatLon0.09_PT036H.grib2 2026-05-02 08:49 603K
20260502T06Z_MSC_RDPS_WindDir_IsbL-0700_RLatLon0.09_PT036H.grib2 2026-05-02 08:49 643K
20260502T06Z_MSC_RDPS_WindDir_IsbL-0750_RLatLon0.09_PT036H.grib2 2026-05-02 08:49 694K
20260502T06Z_MSC_RDPS_WindDir_IsbL-0800_RLatLon0.09_PT036H.grib2 2026-05-02 08:49 768K
20260502T06Z_MSC_RDPS_WindDir_IsbL-0850_RLatLon0.09_PT036H.grib2 2026-05-02 08:49 856K
20260502T06Z_MSC_RDPS_WindDir_IsbL-0875_RLatLon0.09_PT036H.grib2 2026-05-02 08:49 891K
20260502T06Z_MSC_RDPS_WindDir_IsbL-0900_RLatLon0.09_PT036H.grib2 2026-05-02 08:49 909K
20260502T06Z_MSC_RDPS_WindDir_IsbL-0925_RLatLon0.09_PT036H.grib2 2026-05-02 08:49 918K
20260502T06Z_MSC_RDPS_WindDir_IsbL-0950_RLatLon0.09_PT036H.grib2 2026-05-02 08:49 915K
20260502T06Z_MSC_RDPS_WindDir_IsbL-0970_RLatLon0.09_PT036H.grib2 2026-05-02 08:49 924K
20260502T06Z_MSC_RDPS_WindDir_IsbL-0985_RLatLon0.09_PT036H.grib2 2026-05-02 08:49 933K
20260502T06Z_MSC_RDPS_WindDir_IsbL-1000_RLatLon0.09_PT036H.grib2 2026-05-02 08:49 946K
20260502T06Z_MSC_RDPS_WindDir_IsbL-1015_RLatLon0.09_PT036H.grib2 2026-05-02 08:49 961K
20260502T06Z_MSC_RDPS_WindGust-Max_AGL-10m_RLatLon0.09_PT036H.grib2 2026-05-02 08:49 1.0M
20260502T06Z_MSC_RDPS_WindGust-Min_AGL-10m_RLatLon0.09_PT036H.grib2 2026-05-02 08:49 1.0M
20260502T06Z_MSC_RDPS_WindGust_AGL-10m_RLatLon0.09_PT036H.grib2 2026-05-02 08:49 1.0M
20260502T06Z_MSC_RDPS_WindSpeed_AGL-10m_RLatLon0.09_PT036H.grib2 2026-05-02 08:49 845K
20260502T06Z_MSC_RDPS_WindSpeed_AGL-120m_RLatLon0.09_PT036H.grib2 2026-05-02 08:49 538K
20260502T06Z_MSC_RDPS_WindSpeed_AGL-40m_RLatLon0.09_PT036H.grib2 2026-05-02 08:49 542K
20260502T06Z_MSC_RDPS_WindSpeed_AGL-80m_RLatLon0.09_PT036H.grib2 2026-05-02 08:49 538K
20260502T06Z_MSC_RDPS_WindSpeed_IsbL-0001_RLatLon0.09_PT036H.grib2 2026-05-02 08:49 255K
20260502T06Z_MSC_RDPS_WindSpeed_IsbL-0005_RLatLon0.09_PT036H.grib2 2026-05-02 08:49 350K
20260502T06Z_MSC_RDPS_WindSpeed_IsbL-0010_RLatLon0.09_PT036H.grib2 2026-05-02 08:49 400K
20260502T06Z_MSC_RDPS_WindSpeed_IsbL-0020_RLatLon0.09_PT036H.grib2 2026-05-02 08:49 325K
20260502T06Z_MSC_RDPS_WindSpeed_IsbL-0030_RLatLon0.09_PT036H.grib2 2026-05-02 08:49 325K
20260502T06Z_MSC_RDPS_WindSpeed_IsbL-0050_RLatLon0.09_PT036H.grib2 2026-05-02 08:49 352K
20260502T06Z_MSC_RDPS_WindSpeed_IsbL-0100_RLatLon0.09_PT036H.grib2 2026-05-02 08:49 478K
20260502T06Z_MSC_RDPS_WindSpeed_IsbL-0150_RLatLon0.09_PT036H.grib2 2026-05-02 08:49 385K
20260502T06Z_MSC_RDPS_WindSpeed_IsbL-0175_RLatLon0.09_PT036H.grib2 2026-05-02 08:49 429K
20260502T06Z_MSC_RDPS_WindSpeed_IsbL-0200_RLatLon0.09_PT036H.grib2 2026-05-02 08:49 445K
20260502T06Z_MSC_RDPS_WindSpeed_IsbL-0225_RLatLon0.09_PT036H.grib2 2026-05-02 08:49 453K
20260502T06Z_MSC_RDPS_WindSpeed_IsbL-0250_RLatLon0.09_PT036H.grib2 2026-05-02 08:49 456K
20260502T06Z_MSC_RDPS_WindSpeed_IsbL-0275_RLatLon0.09_PT036H.grib2 2026-05-02 08:49 471K
20260502T06Z_MSC_RDPS_WindSpeed_IsbL-0300_RLatLon0.09_PT036H.grib2 2026-05-02 08:49 466K
20260502T06Z_MSC_RDPS_WindSpeed_IsbL-0350_RLatLon0.09_PT036H.grib2 2026-05-02 08:49 460K
20260502T06Z_MSC_RDPS_WindSpeed_IsbL-0400_RLatLon0.09_PT036H.grib2 2026-05-02 08:49 463K
20260502T06Z_MSC_RDPS_WindSpeed_IsbL-0450_RLatLon0.09_PT036H.grib2 2026-05-02 08:49 464K
20260502T06Z_MSC_RDPS_WindSpeed_IsbL-0500_RLatLon0.09_PT036H.grib2 2026-05-02 08:49 462K
20260502T06Z_MSC_RDPS_WindSpeed_IsbL-0550_RLatLon0.09_PT036H.grib2 2026-05-02 08:49 464K
20260502T06Z_MSC_RDPS_WindSpeed_IsbL-0600_RLatLon0.09_PT036H.grib2 2026-05-02 08:49 590K
20260502T06Z_MSC_RDPS_WindSpeed_IsbL-0650_RLatLon0.09_PT036H.grib2 2026-05-02 08:49 610K
20260502T06Z_MSC_RDPS_WindSpeed_IsbL-0700_RLatLon0.09_PT036H.grib2 2026-05-02 08:49 637K
20260502T06Z_MSC_RDPS_WindSpeed_IsbL-0750_RLatLon0.09_PT036H.grib2 2026-05-02 08:49 714K
20260502T06Z_MSC_RDPS_WindSpeed_IsbL-0800_RLatLon0.09_PT036H.grib2 2026-05-02 08:49 765K
20260502T06Z_MSC_RDPS_WindSpeed_IsbL-0850_RLatLon0.09_PT036H.grib2 2026-05-02 08:49 824K
20260502T06Z_MSC_RDPS_WindSpeed_IsbL-0875_RLatLon0.09_PT036H.grib2 2026-05-02 08:49 846K
20260502T06Z_MSC_RDPS_WindSpeed_IsbL-0900_RLatLon0.09_PT036H.grib2 2026-05-02 08:49 857K
20260502T06Z_MSC_RDPS_WindSpeed_IsbL-0925_RLatLon0.09_PT036H.grib2 2026-05-02 08:49 867K
20260502T06Z_MSC_RDPS_WindSpeed_IsbL-0950_RLatLon0.09_PT036H.grib2 2026-05-02 08:49 864K
20260502T06Z_MSC_RDPS_WindSpeed_IsbL-0970_RLatLon0.09_PT036H.grib2 2026-05-02 08:49 863K
20260502T06Z_MSC_RDPS_WindSpeed_IsbL-0985_RLatLon0.09_PT036H.grib2 2026-05-02 08:49 859K
20260502T06Z_MSC_RDPS_WindSpeed_IsbL-1000_RLatLon0.09_PT036H.grib2 2026-05-02 08:49 853K
20260502T06Z_MSC_RDPS_WindSpeed_IsbL-1015_RLatLon0.09_PT036H.grib2 2026-05-02 08:49 844K
20260502T06Z_MSC_RDPS_WindU_AGL-10m_RLatLon0.09_PT036H.grib2 2026-05-02 08:49 437K
20260502T06Z_MSC_RDPS_WindU_AGL-120m_RLatLon0.09_PT036H.grib2 2026-05-02 08:49 419K
20260502T06Z_MSC_RDPS_WindU_AGL-40m_RLatLon0.09_PT036H.grib2 2026-05-02 08:49 539K
20260502T06Z_MSC_RDPS_WindU_AGL-80m_RLatLon0.09_PT036H.grib2 2026-05-02 08:49 420K
20260502T06Z_MSC_RDPS_WindU_IsbL-0001_RLatLon0.09_PT036H.grib2 2026-05-02 08:49 294K
20260502T06Z_MSC_RDPS_WindU_IsbL-0005_RLatLon0.09_PT036H.grib2 2026-05-02 08:49 284K
20260502T06Z_MSC_RDPS_WindU_IsbL-0010_RLatLon0.09_PT036H.grib2 2026-05-02 08:49 298K
20260502T06Z_MSC_RDPS_WindU_IsbL-0020_RLatLon0.09_PT036H.grib2 2026-05-02 08:49 317K
20260502T06Z_MSC_RDPS_WindU_IsbL-0030_RLatLon0.09_PT036H.grib2 2026-05-02 08:49 356K
20260502T06Z_MSC_RDPS_WindU_IsbL-0050_RLatLon0.09_PT036H.grib2 2026-05-02 08:49 381K
20260502T06Z_MSC_RDPS_WindU_IsbL-0100_RLatLon0.09_PT036H.grib2 2026-05-02 08:49 433K
20260502T06Z_MSC_RDPS_WindU_IsbL-0150_RLatLon0.09_PT036H.grib2 2026-05-02 08:49 399K
20260502T06Z_MSC_RDPS_WindU_IsbL-0175_RLatLon0.09_PT036H.grib2 2026-05-02 08:49 420K
20260502T06Z_MSC_RDPS_WindU_IsbL-0200_RLatLon0.09_PT036H.grib2 2026-05-02 08:49 339K
20260502T06Z_MSC_RDPS_WindU_IsbL-0225_RLatLon0.09_PT036H.grib2 2026-05-02 08:49 344K
20260502T06Z_MSC_RDPS_WindU_IsbL-0250_RLatLon0.09_PT036H.grib2 2026-05-02 08:49 346K
20260502T06Z_MSC_RDPS_WindU_IsbL-0275_RLatLon0.09_PT036H.grib2 2026-05-02 08:49 359K
20260502T06Z_MSC_RDPS_WindU_IsbL-0300_RLatLon0.09_PT036H.grib2 2026-05-02 08:49 355K
20260502T06Z_MSC_RDPS_WindU_IsbL-0350_RLatLon0.09_PT036H.grib2 2026-05-02 08:49 466K
20260502T06Z_MSC_RDPS_WindU_IsbL-0400_RLatLon0.09_PT036H.grib2 2026-05-02 08:49 468K
20260502T06Z_MSC_RDPS_WindU_IsbL-0450_RLatLon0.09_PT036H.grib2 2026-05-02 08:49 467K
20260502T06Z_MSC_RDPS_WindU_IsbL-0500_RLatLon0.09_PT036H.grib2 2026-05-02 08:49 468K
20260502T06Z_MSC_RDPS_WindU_IsbL-0550_RLatLon0.09_PT036H.grib2 2026-05-02 08:49 470K
20260502T06Z_MSC_RDPS_WindU_IsbL-0600_RLatLon0.09_PT036H.grib2 2026-05-02 08:49 461K
20260502T06Z_MSC_RDPS_WindU_IsbL-0650_RLatLon0.09_PT036H.grib2 2026-05-02 08:49 480K
20260502T06Z_MSC_RDPS_WindU_IsbL-0700_RLatLon0.09_PT036H.grib2 2026-05-02 08:49 520K
20260502T06Z_MSC_RDPS_WindU_IsbL-0750_RLatLon0.09_PT036H.grib2 2026-05-02 08:49 548K
20260502T06Z_MSC_RDPS_WindU_IsbL-0800_RLatLon0.09_PT036H.grib2 2026-05-02 08:49 578K
20260502T06Z_MSC_RDPS_WindU_IsbL-0850_RLatLon0.09_PT036H.grib2 2026-05-02 08:49 637K
20260502T06Z_MSC_RDPS_WindU_IsbL-0875_RLatLon0.09_PT036H.grib2 2026-05-02 08:49 656K
20260502T06Z_MSC_RDPS_WindU_IsbL-0900_RLatLon0.09_PT036H.grib2 2026-05-02 08:49 664K
20260502T06Z_MSC_RDPS_WindU_IsbL-0925_RLatLon0.09_PT036H.grib2 2026-05-02 08:49 669K
20260502T06Z_MSC_RDPS_WindU_IsbL-0950_RLatLon0.09_PT036H.grib2 2026-05-02 08:49 659K
20260502T06Z_MSC_RDPS_WindU_IsbL-0970_RLatLon0.09_PT036H.grib2 2026-05-02 08:49 659K
20260502T06Z_MSC_RDPS_WindU_IsbL-0985_RLatLon0.09_PT036H.grib2 2026-05-02 08:49 656K
20260502T06Z_MSC_RDPS_WindU_IsbL-1000_RLatLon0.09_PT036H.grib2 2026-05-02 08:49 792K
20260502T06Z_MSC_RDPS_WindU_IsbL-1015_RLatLon0.09_PT036H.grib2 2026-05-02 08:49 786K
20260502T06Z_MSC_RDPS_WindV_AGL-10m_RLatLon0.09_PT036H.grib2 2026-05-02 08:49 436K
20260502T06Z_MSC_RDPS_WindV_AGL-120m_RLatLon0.09_PT036H.grib2 2026-05-02 08:49 419K
20260502T06Z_MSC_RDPS_WindV_AGL-40m_RLatLon0.09_PT036H.grib2 2026-05-02 08:49 538K
20260502T06Z_MSC_RDPS_WindV_AGL-80m_RLatLon0.09_PT036H.grib2 2026-05-02 08:49 419K
20260502T06Z_MSC_RDPS_WindV_IsbL-0001_RLatLon0.09_PT036H.grib2 2026-05-02 08:49 248K
20260502T06Z_MSC_RDPS_WindV_IsbL-0005_RLatLon0.09_PT036H.grib2 2026-05-02 08:49 287K
20260502T06Z_MSC_RDPS_WindV_IsbL-0010_RLatLon0.09_PT036H.grib2 2026-05-02 08:49 392K
20260502T06Z_MSC_RDPS_WindV_IsbL-0020_RLatLon0.09_PT036H.grib2 2026-05-02 08:49 320K
20260502T06Z_MSC_RDPS_WindV_IsbL-0030_RLatLon0.09_PT036H.grib2 2026-05-02 08:49 319K
20260502T06Z_MSC_RDPS_WindV_IsbL-0050_RLatLon0.09_PT036H.grib2 2026-05-02 08:49 345K
20260502T06Z_MSC_RDPS_WindV_IsbL-0100_RLatLon0.09_PT036H.grib2 2026-05-02 08:49 335K
20260502T06Z_MSC_RDPS_WindV_IsbL-0150_RLatLon0.09_PT036H.grib2 2026-05-02 08:49 399K
20260502T06Z_MSC_RDPS_WindV_IsbL-0175_RLatLon0.09_PT036H.grib2 2026-05-02 08:49 422K
20260502T06Z_MSC_RDPS_WindV_IsbL-0200_RLatLon0.09_PT036H.grib2 2026-05-02 08:49 339K
20260502T06Z_MSC_RDPS_WindV_IsbL-0225_RLatLon0.09_PT036H.grib2 2026-05-02 08:49 369K
20260502T06Z_MSC_RDPS_WindV_IsbL-0250_RLatLon0.09_PT036H.grib2 2026-05-02 08:49 371K
20260502T06Z_MSC_RDPS_WindV_IsbL-0275_RLatLon0.09_PT036H.grib2 2026-05-02 08:49 381K
20260502T06Z_MSC_RDPS_WindV_IsbL-0300_RLatLon0.09_PT036H.grib2 2026-05-02 08:49 377K
20260502T06Z_MSC_RDPS_WindV_IsbL-0350_RLatLon0.09_PT036H.grib2 2026-05-02 08:49 359K
20260502T06Z_MSC_RDPS_WindV_IsbL-0400_RLatLon0.09_PT036H.grib2 2026-05-02 08:49 361K
20260502T06Z_MSC_RDPS_WindV_IsbL-0450_RLatLon0.09_PT036H.grib2 2026-05-02 08:49 362K
20260502T06Z_MSC_RDPS_WindV_IsbL-0500_RLatLon0.09_PT036H.grib2 2026-05-02 08:49 466K
20260502T06Z_MSC_RDPS_WindV_IsbL-0550_RLatLon0.09_PT036H.grib2 2026-05-02 08:49 468K
20260502T06Z_MSC_RDPS_WindV_IsbL-0600_RLatLon0.09_PT036H.grib2 2026-05-02 08:49 476K
20260502T06Z_MSC_RDPS_WindV_IsbL-0650_RLatLon0.09_PT036H.grib2 2026-05-02 08:49 493K
20260502T06Z_MSC_RDPS_WindV_IsbL-0700_RLatLon0.09_PT036H.grib2 2026-05-02 08:49 517K
20260502T06Z_MSC_RDPS_WindV_IsbL-0750_RLatLon0.09_PT036H.grib2 2026-05-02 08:49 545K
20260502T06Z_MSC_RDPS_WindV_IsbL-0800_RLatLon0.09_PT036H.grib2 2026-05-02 08:49 587K
20260502T06Z_MSC_RDPS_WindV_IsbL-0850_RLatLon0.09_PT036H.grib2 2026-05-02 08:49 636K
20260502T06Z_MSC_RDPS_WindV_IsbL-0875_RLatLon0.09_PT036H.grib2 2026-05-02 08:49 654K
20260502T06Z_MSC_RDPS_WindV_IsbL-0900_RLatLon0.09_PT036H.grib2 2026-05-02 08:49 662K
20260502T06Z_MSC_RDPS_WindV_IsbL-0925_RLatLon0.09_PT036H.grib2 2026-05-02 08:49 663K
20260502T06Z_MSC_RDPS_WindV_IsbL-0950_RLatLon0.09_PT036H.grib2 2026-05-02 08:49 659K
20260502T06Z_MSC_RDPS_WindV_IsbL-0970_RLatLon0.09_PT036H.grib2 2026-05-02 08:49 659K
20260502T06Z_MSC_RDPS_WindV_IsbL-0985_RLatLon0.09_PT036H.grib2 2026-05-02 08:49 656K
20260502T06Z_MSC_RDPS_WindV_IsbL-1000_RLatLon0.09_PT036H.grib2 2026-05-02 08:49 791K
20260502T06Z_MSC_RDPS_WindV_IsbL-1015_RLatLon0.09_PT036H.grib2 2026-05-02 08:49 784K